SDM6289 ULLI-UHMM

Flight info

Callsign SDM6289
Flight time N/A
Altitude 35000
Route RELNI1C RELNI T693 DISUP T821 ARGIP M58 RIGNI L168 NRM M131 LABAR T411 OLEGA A812 USORU/K0907F370 A812 LANAR LANAR5J
Aircraft B77W/H-SDE1E2E3FGHIJ2J3J4J5M1RWXY/LB1D1

Departure

Time N/A
Airport Pulkovo Airport (ULLI)

Arrival

Time 2026-04-15 11:23
Airport Sokol Airport (UHMM)
Time Latitude Longitude Altitude Speed Heading
2026-04-15 07:44 73.07169 85.36841 35295 ft 475 kts 77°
2026-04-15 07:44 73.08307 85.59478 35290 ft 475 kts 78°
2026-04-15 07:45 73.09404 85.81815 35294 ft 475 kts 78°
2026-04-15 07:45 73.10478 86.04199 35286 ft 475 kts 78°
2026-04-15 07:46 73.11529 86.26623 35309 ft 475 kts 79°
2026-04-15 07:46 73.12555 86.49083 35284 ft 475 kts 79°
2026-04-15 07:47 73.13558 86.71600 35286 ft 475 kts 79°
2026-04-15 07:47 73.14535 86.94103 35287 ft 475 kts 79°
2026-04-15 07:48 73.15482 87.16526 35284 ft 475 kts 79°
2026-04-15 07:48 73.16416 87.39232 35284 ft 475 kts 80°
2026-04-15 07:49 73.17315 87.61699 35283 ft 476 kts 81°
2026-04-15 07:49 73.18195 87.84340 35279 ft 476 kts 81°
2026-04-15 07:50 73.19051 88.07022 35270 ft 476 kts 81°
2026-04-15 07:50 73.19882 88.29705 35275 ft 476 kts 81°
2026-04-15 07:51 73.20688 88.52421 35267 ft 476 kts 81°
2026-04-15 07:51 73.21468 88.75137 35265 ft 476 kts 82°
2026-04-15 07:52 73.22229 88.97916 35266 ft 476 kts 82°
2026-04-15 07:52 73.22898 89.20667 35256 ft 471 kts 85°
2026-04-15 07:53 73.23059 89.43427 35278 ft 475 kts 87°
2026-04-15 07:53 73.23188 89.66383 35281 ft 478 kts 86°
2026-04-15 07:54 73.23477 89.89439 35281 ft 480 kts 85°
2026-04-15 07:54 73.23754 90.12389 35277 ft 481 kts 86°
2026-04-15 07:55 73.23957 90.35567 35272 ft 480 kts 87°
2026-04-15 07:56 73.24154 90.70199 35268 ft 478 kts 87°
2026-04-15 07:56 73.24249 90.93170 35270 ft 476 kts 88°
2026-04-15 07:57 73.24323 91.16125 35259 ft 475 kts 88°
2026-04-15 07:57 73.24375 91.38897 35275 ft 475 kts 88°
2026-04-15 07:58 73.24404 91.61788 35266 ft 475 kts 88°
2026-04-15 07:58 73.24405 91.84713 35260 ft 475 kts 89°
2026-04-15 07:59 73.24380 92.07613 35258 ft 476 kts 89°
2026-04-15 07:59 73.24330 92.30548 35256 ft 476 kts 89°
2026-04-15 08:00 73.24255 92.53467 35258 ft 476 kts 89°
2026-04-15 08:00 73.24156 92.76452 35259 ft 477 kts 90°
2026-04-15 08:01 73.24030 92.99422 35255 ft 476 kts 90°
2026-04-15 08:01 73.23878 93.22399 35251 ft 476 kts 90°
2026-04-15 08:02 73.23700 93.45334 35250 ft 476 kts 90°
2026-04-15 08:02 73.23498 93.68262 35250 ft 476 kts 91°
2026-04-15 08:03 73.23272 93.91165 35259 ft 476 kts 91°
2026-04-15 08:03 73.23023 94.13916 35250 ft 475 kts 91°
2026-04-15 08:04 73.22746 94.36762 35252 ft 475 kts 92°
2026-04-15 08:04 73.22442 94.59623 35250 ft 475 kts 92°
2026-04-15 08:05 73.22114 94.82438 35248 ft 475 kts 92°
2026-04-15 08:05 73.21762 95.05261 35249 ft 475 kts 92°
2026-04-15 08:06 73.21387 95.28073 35248 ft 475 kts 93°
2026-04-15 08:06 73.20985 95.50862 35246 ft 474 kts 93°
2026-04-15 08:07 73.20557 95.73615 35252 ft 474 kts 94°
2026-04-15 08:07 73.20104 95.96342 35254 ft 474 kts 94°
2026-04-15 08:08 73.19630 96.18896 35253 ft 474 kts 94°
2026-04-15 08:08 73.19128 96.41604 35252 ft 474 kts 94°
2026-04-15 08:09 73.18602 96.64282 35238 ft 474 kts 95°
2026-04-15 08:09 73.18051 96.86930 35238 ft 473 kts 95°
2026-04-15 08:10 73.17477 97.09533 35241 ft 473 kts 95°
2026-04-15 08:10 73.16878 97.32145 35245 ft 472 kts 95°
2026-04-15 08:11 73.16254 97.54723 35248 ft 472 kts 95°
2026-04-15 08:11 73.15605 97.77276 35238 ft 473 kts 96°
2026-04-15 08:12 73.14932 97.99828 35249 ft 474 kts 96°
2026-04-15 08:12 73.14231 98.22460 35243 ft 475 kts 96°
2026-04-15 08:13 73.13506 98.45059 35242 ft 475 kts 96°
2026-04-15 08:13 73.12759 98.67557 35236 ft 476 kts 97°
2026-04-15 08:14 73.11983 98.90154 35238 ft 475 kts 97°
2026-04-15 08:14 73.11184 99.12691 35239 ft 475 kts 97°
2026-04-15 08:15 73.10359 99.35237 35239 ft 474 kts 98°
2026-04-15 08:15 73.09511 99.57708 35240 ft 474 kts 98°
2026-04-15 08:16 73.08641 99.80098 35234 ft 473 kts 98°
2026-04-15 08:16 73.07898 99.98720 35233 ft 473 kts 98°
2026-04-15 08:17 73.06985 100.21035 35230 ft 473 kts 98°
2026-04-15 08:17 73.06045 100.43404 35237 ft 473 kts 99°
2026-04-15 08:18 73.05080 100.65742 35236 ft 474 kts 99°
2026-04-15 08:18 73.04090 100.88105 35238 ft 475 kts 99°
2026-04-15 08:19 73.03075 101.10434 35241 ft 475 kts 99°
2026-04-15 08:19 73.02033 101.32798 35241 ft 475 kts 99°
2026-04-15 08:20 73.00968 101.55100 35237 ft 475 kts 100°
2026-04-15 08:20 72.99878 101.77399 35237 ft 475 kts 100°
2026-04-15 08:21 72.98773 101.99490 35241 ft 475 kts 100°
2026-04-15 08:21 72.97636 102.21697 35238 ft 475 kts 101°
2026-04-15 08:22 72.96474 102.43902 35236 ft 475 kts 101°
2026-04-15 08:22 72.95291 102.66025 35238 ft 474 kts 101°
2026-04-15 08:23 72.94083 102.88124 35244 ft 474 kts 101°
2026-04-15 08:23 72.92853 103.10168 35241 ft 474 kts 102°
2026-04-15 08:24 72.91599 103.32177 35244 ft 474 kts 102°
2026-04-15 08:24 72.90321 103.54181 35248 ft 474 kts 102°
2026-04-15 08:25 72.89017 103.76168 35247 ft 474 kts 102°
2026-04-15 08:25 72.87692 103.98087 35240 ft 474 kts 103°
2026-04-15 08:26 72.86354 104.19800 35253 ft 474 kts 103°
2026-04-15 08:26 72.84982 104.41665 35252 ft 474 kts 103°
2026-04-15 08:27 72.83586 104.63489 35244 ft 474 kts 103°
2026-04-15 08:27 72.82164 104.85313 35248 ft 474 kts 103°
2026-04-15 08:28 72.80720 105.07104 35252 ft 474 kts 104°
2026-04-15 08:28 72.79263 105.28697 35248 ft 474 kts 104°
2026-04-15 08:29 72.77775 105.50362 35253 ft 474 kts 104°
2026-04-15 08:29 72.76264 105.71990 35264 ft 473 kts 104°
2026-04-15 08:30 72.74732 105.93545 35263 ft 473 kts 105°
2026-04-15 08:30 72.73178 106.15070 35269 ft 473 kts 105°
2026-04-15 08:31 72.71601 106.36545 35265 ft 472 kts 105°
2026-04-15 08:31 72.70003 106.57969 35270 ft 472 kts 105°
2026-04-15 08:32 72.68381 106.79360 35273 ft 473 kts 106°
2026-04-15 08:32 72.66736 107.00724 35274 ft 473 kts 106°
2026-04-15 08:33 72.65067 107.22059 35273 ft 473 kts 106°
2026-04-15 08:33 72.63376 107.43353 35266 ft 473 kts 107°
2026-04-15 08:34 72.61665 107.64576 35275 ft 473 kts 107°
2026-04-15 08:34 72.59928 107.85794 35292 ft 473 kts 107°
2026-04-15 08:35 72.58182 108.06814 35277 ft 473 kts 107°
2026-04-15 08:35 72.56404 108.27911 35284 ft 473 kts 107°
2026-04-15 08:36 72.54603 108.48987 35299 ft 473 kts 108°
2026-04-15 08:36 72.52781 108.69995 35286 ft 472 kts 108°
2026-04-15 08:37 72.50934 108.90996 35302 ft 472 kts 108°
2026-04-15 08:37 72.49071 109.11891 35301 ft 471 kts 108°
2026-04-15 08:38 72.47188 109.32714 35302 ft 471 kts 109°
2026-04-15 08:38 72.45284 109.53502 35308 ft 471 kts 109°
2026-04-15 08:39 72.43360 109.74210 35296 ft 470 kts 109°
2026-04-15 08:39 72.41416 109.94874 35304 ft 470 kts 109°
2026-04-15 08:40 72.39464 110.15351 35306 ft 470 kts 109°
2026-04-15 08:40 72.37477 110.35918 35307 ft 470 kts 110°
2026-04-15 08:41 72.35473 110.56402 35307 ft 470 kts 110°
2026-04-15 08:41 72.33442 110.76909 35357 ft 472 kts 110°
2026-04-15 08:41 72.32413 110.87187 35581 ft 472 kts 110°
2026-04-15 08:42 72.31381 110.97442 35912 ft 470 kts 110°
2026-04-15 08:42 72.30348 111.07638 36250 ft 469 kts 110°
2026-04-15 08:42 72.29313 111.17786 36552 ft 468 kts 111°
2026-04-15 08:42 72.28274 111.27915 36793 ft 468 kts 111°
2026-04-15 08:43 72.27229 111.38048 37020 ft 469 kts 111°
2026-04-15 08:43 72.26176 111.48191 37215 ft 470 kts 111°
2026-04-15 08:43 72.25113 111.58371 37261 ft 472 kts 111°
2026-04-15 08:44 72.22979 111.78644 37319 ft 470 kts 111°
2026-04-15 08:44 72.20842 111.98699 37309 ft 468 kts 111°
2026-04-15 08:45 72.18684 112.18736 37328 ft 467 kts 112°
2026-04-15 08:45 72.16513 112.38704 37324 ft 466 kts 112°
2026-04-15 08:46 72.14343 112.58606 37324 ft 466 kts 112°
2026-04-15 08:46 72.12153 112.78495 37310 ft 467 kts 112°
2026-04-15 08:47 72.09938 112.98367 37332 ft 468 kts 112°
2026-04-15 08:47 72.07700 113.18205 37332 ft 468 kts 112°
2026-04-15 08:48 72.05438 113.38026 37335 ft 469 kts 112°
2026-04-15 08:48 72.03152 113.57845 37320 ft 469 kts 113°
2026-04-15 08:49 72.00846 113.77616 37336 ft 469 kts 113°
2026-04-15 08:49 71.98523 113.97331 37334 ft 470 kts 113°
2026-04-15 08:50 71.96174 114.17005 37301 ft 469 kts 114°
2026-04-15 08:50 71.93786 114.36444 37329 ft 468 kts 114°
2026-04-15 08:51 71.91358 114.55913 37330 ft 468 kts 114°
2026-04-15 08:51 71.88916 114.75350 37328 ft 468 kts 114°
2026-04-15 08:52 71.86458 114.94737 37329 ft 468 kts 114°
2026-04-15 08:52 71.83984 115.14058 37320 ft 468 kts 115°
2026-04-15 08:53 71.81493 115.33314 37309 ft 468 kts 115°
2026-04-15 08:53 71.78986 115.52492 37316 ft 467 kts 115°
2026-04-15 08:54 71.76457 115.71638 37326 ft 467 kts 115°
2026-04-15 08:54 71.73910 115.90722 37313 ft 467 kts 116°
2026-04-15 08:55 71.71346 116.09748 37310 ft 467 kts 116°
2026-04-15 08:55 71.68765 116.28704 37314 ft 467 kts 116°
2026-04-15 08:56 71.66184 116.47480 37304 ft 466 kts 116°
2026-04-15 08:56 71.63567 116.66330 37307 ft 466 kts 116°
2026-04-15 08:57 71.60935 116.85102 37298 ft 466 kts 117°
2026-04-15 08:57 71.58283 117.03834 37299 ft 466 kts 117°
2026-04-15 08:58 71.55612 117.22519 37292 ft 466 kts 117°
2026-04-15 08:58 71.51579 117.50439 37284 ft 466 kts 117°
2026-04-15 08:59 71.48863 117.68966 37283 ft 465 kts 118°
2026-04-15 08:59 71.46133 117.87408 37283 ft 465 kts 118°
2026-04-15 09:00 71.43388 118.05808 37278 ft 465 kts 118°
2026-04-15 09:00 71.41098 118.21031 37277 ft 465 kts 118°
2026-04-15 09:01 71.37852 118.42422 37252 ft 464 kts 118°
2026-04-15 09:01 71.35062 118.60619 37257 ft 464 kts 118°
2026-04-15 09:02 71.32256 118.78756 37270 ft 464 kts 119°
2026-04-15 09:02 71.29435 118.96825 37271 ft 464 kts 119°
2026-04-15 09:03 71.27073 119.11835 37252 ft 464 kts 119°
2026-04-15 09:03 71.23761 119.32720 37260 ft 463 kts 119°
2026-04-15 09:04 71.20893 119.50627 37244 ft 463 kts 120°
2026-04-15 09:04 71.18499 119.65486 37248 ft 463 kts 120°
2026-04-15 09:05 71.15611 119.83289 37252 ft 463 kts 120°
2026-04-15 09:05 71.12710 120.01024 37242 ft 463 kts 120°
2026-04-15 09:06 71.09791 120.18729 37245 ft 463 kts 120°
2026-04-15 09:06 71.06849 120.36355 37215 ft 462 kts 121°
2026-04-15 09:07 71.03874 120.53836 37229 ft 461 kts 121°
2026-04-15 09:07 71.00878 120.71276 37238 ft 461 kts 121°
2026-04-15 09:08 70.97870 120.88670 37235 ft 462 kts 121°
2026-04-15 09:08 70.94848 121.06020 37232 ft 462 kts 121°
2026-04-15 09:09 70.91806 121.23338 37226 ft 462 kts 121°
2026-04-15 09:09 70.88752 121.40584 37218 ft 461 kts 122°
2026-04-15 09:10 70.85686 121.57748 37219 ft 461 kts 122°
2026-04-15 09:10 70.82602 121.74870 37219 ft 461 kts 122°
2026-04-15 09:11 70.79502 121.91950 37211 ft 461 kts 122°
2026-04-15 09:11 70.76392 122.08944 37211 ft 461 kts 122°
2026-04-15 09:12 70.73267 122.25900 37215 ft 461 kts 122°
2026-04-15 09:12 70.70137 122.42694 37202 ft 460 kts 123°
2026-04-15 09:13 70.66968 122.59483 37206 ft 460 kts 123°
2026-04-15 09:13 70.63780 122.76249 37198 ft 460 kts 123°
2026-04-15 09:14 70.60582 122.92960 37198 ft 460 kts 123°
2026-04-15 09:14 70.57371 123.09608 37192 ft 460 kts 123°
2026-04-15 09:15 70.54150 123.26183 37196 ft 460 kts 123°
2026-04-15 09:15 70.50913 123.42721 37183 ft 460 kts 124°
2026-04-15 09:16 70.47671 123.59202 37186 ft 459 kts 123°
2026-04-15 09:16 70.44451 123.75683 37188 ft 459 kts 123°
2026-04-15 09:17 70.41223 123.92146 37183 ft 459 kts 124°
2026-04-15 09:17 70.37980 124.08533 37189 ft 459 kts 124°
2026-04-15 09:18 70.34741 124.24751 37171 ft 459 kts 124°
2026-04-15 09:18 70.31447 124.41112 37183 ft 458 kts 124°
2026-04-15 09:19 70.28164 124.57293 37169 ft 458 kts 124°
2026-04-15 09:19 70.24884 124.73341 37170 ft 458 kts 124°
2026-04-15 09:20 70.21576 124.89404 37167 ft 458 kts 125°
2026-04-15 09:20 70.18245 125.05460 37137 ft 458 kts 125°
2026-04-15 09:21 70.14907 125.21430 37153 ft 458 kts 125°
2026-04-15 09:21 70.11552 125.37358 37157 ft 457 kts 125°
2026-04-15 09:22 70.08190 125.53202 37156 ft 457 kts 126°
2026-04-15 09:22 70.04814 125.68997 37150 ft 457 kts 126°
2026-04-15 09:23 70.01429 125.84717 37146 ft 457 kts 126°
2026-04-15 09:23 69.98035 126.00364 37134 ft 456 kts 126°
2026-04-15 09:24 69.94623 126.15984 37138 ft 456 kts 126°
2026-04-15 09:24 69.91229 126.31422 37129 ft 456 kts 126°
2026-04-15 09:25 69.87794 126.46918 37132 ft 456 kts 127°
2026-04-15 09:25 69.84320 126.62297 37120 ft 456 kts 127°
2026-04-15 09:26 69.80816 126.77651 37094 ft 456 kts 127°
2026-04-15 09:26 69.77312 126.92929 37107 ft 456 kts 127°
2026-04-15 09:27 69.73796 127.08167 37109 ft 456 kts 127°
2026-04-15 09:27 69.70263 127.23367 37107 ft 456 kts 127°
2026-04-15 09:28 69.66721 127.38504 37109 ft 456 kts 128°
2026-04-15 09:28 69.63166 127.53593 37113 ft 456 kts 128°
2026-04-15 09:29 69.59601 127.68617 37112 ft 455 kts 128°
2026-04-15 09:29 69.56023 127.83589 37106 ft 455 kts 128°
2026-04-15 09:30 69.52440 127.98484 37115 ft 454 kts 128°
2026-04-15 09:30 69.48870 128.13223 37097 ft 454 kts 128°
2026-04-15 09:31 69.45265 128.28001 37121 ft 454 kts 128°
2026-04-15 09:31 69.41652 128.42716 37086 ft 454 kts 128°
2026-04-15 09:32 69.38020 128.57409 37106 ft 454 kts 129°
2026-04-15 09:32 69.34380 128.72034 37129 ft 454 kts 129°
2026-04-15 09:33 69.30736 128.86584 37129 ft 454 kts 129°
2026-04-15 09:33 69.27077 129.01100 37153 ft 453 kts 129°
2026-04-15 09:34 69.23425 129.15583 37149 ft 453 kts 129°
2026-04-15 09:34 69.19777 129.30066 37162 ft 453 kts 129°
2026-04-15 09:35 69.16123 129.44487 37165 ft 453 kts 129°
2026-04-15 09:35 69.12450 129.58869 37183 ft 454 kts 129°
2026-04-15 09:36 69.08759 129.73222 37182 ft 454 kts 129°
2026-04-15 09:36 69.05053 129.87531 37192 ft 454 kts 129°
2026-04-15 09:37 69.01357 130.01712 37190 ft 455 kts 129°
2026-04-15 09:37 68.97627 130.15935 37183 ft 454 kts 130°
2026-04-15 09:38 68.93883 130.30116 37205 ft 455 kts 130°
2026-04-15 09:38 68.90123 130.44260 37204 ft 455 kts 130°
2026-04-15 09:39 68.86357 130.58339 37208 ft 455 kts 130°
2026-04-15 09:39 68.82569 130.72408 37213 ft 455 kts 130°
2026-04-15 09:40 68.78778 130.86397 37216 ft 454 kts 130°
2026-04-15 09:40 68.74986 131.00300 37212 ft 454 kts 130°
2026-04-15 09:41 68.71204 131.14078 37221 ft 454 kts 130°
2026-04-15 09:41 68.67383 131.27909 37217 ft 454 kts 131°
2026-04-15 09:42 68.63554 131.41684 37205 ft 454 kts 131°
2026-04-15 09:42 68.59718 131.55393 37195 ft 453 kts 131°
2026-04-15 09:43 68.55876 131.69043 37203 ft 453 kts 131°
2026-04-15 09:43 68.52017 131.82661 37203 ft 453 kts 131°
2026-04-15 09:44 68.48144 131.96248 37195 ft 453 kts 131°
2026-04-15 09:44 68.44261 132.09785 37199 ft 454 kts 131°
2026-04-15 09:45 68.40365 132.23280 37196 ft 454 kts 131°
2026-04-15 09:45 68.36453 132.36747 37196 ft 453 kts 131°
2026-04-15 09:46 68.32543 132.50126 37191 ft 453 kts 132°
2026-04-15 09:46 68.28617 132.63475 37185 ft 453 kts 132°
2026-04-15 09:47 68.24685 132.76764 37184 ft 453 kts 132°
2026-04-15 09:47 68.20742 132.90012 37181 ft 453 kts 132°
2026-04-15 09:48 68.16796 133.03188 37152 ft 452 kts 132°
2026-04-15 09:48 68.12865 133.16245 37169 ft 452 kts 133°
2026-04-15 09:49 68.08890 133.29272 37176 ft 451 kts 133°
2026-04-15 09:49 68.04846 133.42097 37181 ft 451 kts 134°
2026-04-15 09:50 68.00786 133.54906 37167 ft 452 kts 134°
2026-04-15 09:50 67.96719 133.67734 37171 ft 453 kts 134°
2026-04-15 09:51 67.92660 133.80552 37153 ft 453 kts 133°
2026-04-15 09:51 67.89285 133.91384 37156 ft 454 kts 133°
2026-04-15 09:52 67.85281 134.04213 37159 ft 454 kts 133°
2026-04-15 09:52 67.81237 134.17051 37156 ft 454 kts 133°
2026-04-15 09:53 67.77177 134.29841 37159 ft 454 kts 133°
2026-04-15 09:53 67.73109 134.42579 37161 ft 454 kts 134°
2026-04-15 09:54 67.69032 134.55275 37144 ft 454 kts 134°
2026-04-15 09:54 67.64941 134.67948 37162 ft 453 kts 134°
2026-04-15 09:55 67.60926 134.80711 37144 ft 454 kts 132°
2026-04-15 09:55 67.57005 134.93548 37155 ft 454 kts 132°
2026-04-15 09:56 67.53056 135.06406 37164 ft 454 kts 132°
2026-04-15 09:57 67.47073 135.25595 37143 ft 452 kts 133°
2026-04-15 09:57 67.43085 135.38261 37145 ft 452 kts 133°
2026-04-15 09:58 67.39082 135.50908 37144 ft 452 kts 133°
2026-04-15 09:58 67.35076 135.63497 37146 ft 452 kts 133°
2026-04-15 09:59 67.31058 135.76050 37141 ft 452 kts 133°
2026-04-15 09:59 67.27033 135.88555 37132 ft 452 kts 133°
2026-04-15 10:00 67.22990 136.01048 37141 ft 453 kts 133°
2026-04-15 10:00 67.18965 136.13413 37142 ft 452 kts 133°
2026-04-15 10:01 67.14936 136.25873 37140 ft 453 kts 133°
2026-04-15 10:01 67.10920 136.38352 37138 ft 453 kts 133°
2026-04-15 10:02 67.06885 136.50814 37114 ft 453 kts 133°
2026-04-15 10:02 67.02841 136.63204 37130 ft 453 kts 133°
2026-04-15 10:03 66.98786 136.75550 37132 ft 453 kts 133°
2026-04-15 10:03 66.94720 136.87862 37127 ft 453 kts 133°
2026-04-15 10:04 66.90646 137.00130 37129 ft 453 kts 133°
2026-04-15 10:04 66.86553 137.12386 37125 ft 453 kts 133°
2026-04-15 10:05 66.82487 137.24493 37116 ft 453 kts 133°
2026-04-15 10:05 66.78362 137.36709 37120 ft 453 kts 133°
2026-04-15 10:06 66.74284 137.48726 37119 ft 453 kts 134°
2026-04-15 10:06 66.70173 137.60774 37114 ft 453 kts 134°
2026-04-15 10:07 66.66059 137.72799 37118 ft 452 kts 134°
2026-04-15 10:07 66.61932 137.84803 37101 ft 452 kts 134°
2026-04-15 10:08 66.57803 137.96747 37114 ft 453 kts 134°
2026-04-15 10:08 66.53655 138.08681 37108 ft 454 kts 134°
2026-04-15 10:09 66.49495 138.20587 37108 ft 454 kts 134°
2026-04-15 10:09 66.45318 138.32468 37095 ft 454 kts 134°
2026-04-15 10:10 66.41135 138.44305 37094 ft 454 kts 134°
2026-04-15 10:10 66.36937 138.56119 37094 ft 455 kts 134°
2026-04-15 10:11 66.32736 138.67878 37080 ft 454 kts 134°
2026-04-15 10:11 66.28524 138.79602 37082 ft 454 kts 134°
2026-04-15 10:12 66.24311 138.91266 37081 ft 454 kts 134°
2026-04-15 10:12 66.20080 139.02924 37078 ft 454 kts 134°
2026-04-15 10:13 66.15852 139.14509 37062 ft 454 kts 134°
2026-04-15 10:13 66.11622 139.25928 37077 ft 453 kts 135°
2026-04-15 10:14 66.07339 139.37349 37067 ft 454 kts 135°
2026-04-15 10:14 66.03037 139.48774 37069 ft 454 kts 135°
2026-04-15 10:15 65.98736 139.60157 37080 ft 455 kts 135°
2026-04-15 10:15 65.94419 139.71526 37058 ft 455 kts 135°
2026-04-15 10:16 65.90094 139.82849 37071 ft 456 kts 135°
2026-04-15 10:16 65.85739 139.94196 37071 ft 457 kts 135°
2026-04-15 10:17 65.81370 140.05521 37070 ft 457 kts 135°
2026-04-15 10:17 65.77026 140.16721 37073 ft 457 kts 135°
2026-04-15 10:18 65.72648 140.27944 37052 ft 457 kts 135°
2026-04-15 10:18 65.70730 140.32841 37077 ft 457 kts 135°
2026-04-15 10:19 65.66329 140.44038 37079 ft 458 kts 135°
2026-04-15 10:19 65.61922 140.55197 37086 ft 458 kts 135°
2026-04-15 10:20 65.57505 140.66325 37087 ft 459 kts 135°
2026-04-15 10:20 65.53066 140.77444 37091 ft 460 kts 136°
2026-04-15 10:21 65.48624 140.88514 37076 ft 460 kts 135°
2026-04-15 10:21 65.44164 140.99570 37076 ft 461 kts 136°
2026-04-15 10:22 65.39688 141.10612 37096 ft 461 kts 136°
2026-04-15 10:22 65.35224 141.21571 37085 ft 462 kts 136°
2026-04-15 10:23 65.30725 141.32561 37081 ft 463 kts 136°
2026-04-15 10:23 65.26205 141.43546 37076 ft 463 kts 136°
2026-04-15 10:24 65.21686 141.54491 37084 ft 463 kts 136°
2026-04-15 10:24 65.17146 141.65447 37085 ft 464 kts 136°
2026-04-15 10:25 65.12595 141.76375 37087 ft 465 kts 136°
2026-04-15 10:25 65.08057 141.87211 37086 ft 465 kts 136°
2026-04-15 10:26 65.03457 141.98143 37077 ft 465 kts 136°
2026-04-15 10:26 64.98881 142.08956 37074 ft 465 kts 136°
2026-04-15 10:27 64.94288 142.19774 37088 ft 466 kts 136°
2026-04-15 10:27 64.89703 142.30532 37093 ft 468 kts 136°
2026-04-15 10:28 64.85075 142.41346 37097 ft 470 kts 136°
2026-04-15 10:28 64.80416 142.52173 37082 ft 472 kts 136°
2026-04-15 10:29 64.75729 142.63004 37085 ft 472 kts 136°
2026-04-15 10:29 64.71041 142.73785 37084 ft 473 kts 136°
2026-04-15 10:30 64.66341 142.84540 37085 ft 473 kts 136°
2026-04-15 10:30 64.61629 142.95268 37083 ft 473 kts 136°
2026-04-15 10:31 64.56919 143.05941 37082 ft 472 kts 136°
2026-04-15 10:31 64.52098 143.16164 37080 ft 467 kts 140°
2026-04-15 10:32 64.47053 143.25732 37076 ft 469 kts 140°
2026-04-15 10:32 64.42085 143.35561 37078 ft 470 kts 138°
2026-04-15 10:33 64.37212 143.45553 37075 ft 472 kts 139°
2026-04-15 10:33 64.32233 143.55464 37072 ft 473 kts 140°
2026-04-15 10:34 64.27210 143.65253 37072 ft 473 kts 140°
2026-04-15 10:34 64.22176 143.75030 37075 ft 474 kts 140°
2026-04-15 10:35 64.17132 143.84769 37076 ft 474 kts 140°
2026-04-15 10:35 64.12083 143.94478 37075 ft 474 kts 140°
2026-04-15 10:36 64.07024 144.04162 37071 ft 474 kts 140°
2026-04-15 10:36 64.01977 144.13808 37074 ft 473 kts 140°
2026-04-15 10:37 63.97788 144.21810 37077 ft 473 kts 140°
2026-04-15 10:37 63.92744 144.31414 37070 ft 473 kts 140°
2026-04-15 10:38 63.87711 144.40942 37076 ft 472 kts 140°
2026-04-15 10:38 63.81834 144.52007 37077 ft 472 kts 140°
2026-04-15 10:39 63.77591 144.59954 37075 ft 473 kts 140°
2026-04-15 10:39 63.72543 144.69370 37068 ft 473 kts 140°
2026-04-15 10:40 63.67457 144.78814 37065 ft 474 kts 140°
2026-04-15 10:40 63.62359 144.88233 37065 ft 474 kts 140°
2026-04-15 10:41 63.57245 144.97636 37063 ft 475 kts 140°
2026-04-15 10:41 63.52121 145.07013 37062 ft 476 kts 140°
2026-04-15 10:42 63.46982 145.16373 37069 ft 477 kts 140°
2026-04-15 10:42 63.41823 145.25725 37060 ft 477 kts 140°
2026-04-15 10:43 63.36694 145.34983 37062 ft 478 kts 141°
2026-04-15 10:43 63.31508 145.44295 37052 ft 479 kts 141°
2026-04-15 10:44 63.26296 145.53554 37054 ft 479 kts 141°
2026-04-15 10:44 63.21071 145.62772 37052 ft 480 kts 141°
2026-04-15 10:45 63.15839 145.71974 37050 ft 480 kts 141°
2026-04-15 10:45 63.10604 145.81146 37049 ft 481 kts 141°
2026-04-15 10:46 63.05358 145.90295 37046 ft 481 kts 141°
2026-04-15 10:46 63.00098 145.99419 37047 ft 481 kts 141°
2026-04-15 10:47 62.94839 146.08500 37049 ft 481 kts 141°
2026-04-15 10:47 62.89570 146.17561 37044 ft 481 kts 141°
2026-04-15 10:48 62.84303 146.26578 37044 ft 481 kts 141°
2026-04-15 10:48 62.79028 146.35568 37044 ft 481 kts 141°
2026-04-15 10:49 62.73748 146.44524 37046 ft 481 kts 141°
2026-04-15 10:49 62.68461 146.53458 37040 ft 480 kts 141°
2026-04-15 10:50 62.63176 146.62344 37043 ft 480 kts 141°
2026-04-15 10:50 62.57891 146.71216 37048 ft 480 kts 141°
2026-04-15 10:51 62.52601 146.80065 37046 ft 480 kts 141°
2026-04-15 10:51 62.47309 146.88880 37043 ft 480 kts 141°
2026-04-15 10:52 62.42043 146.97610 37042 ft 480 kts 141°
2026-04-15 10:52 62.36741 147.06358 37042 ft 480 kts 141°
2026-04-15 10:53 62.31431 147.15078 37047 ft 480 kts 141°
2026-04-15 10:53 62.26111 147.23774 37038 ft 481 kts 142°
2026-04-15 10:54 62.20779 147.32453 37038 ft 481 kts 142°
2026-04-15 10:54 62.15440 147.41101 37041 ft 481 kts 142°
2026-04-15 10:55 62.10096 147.49720 37039 ft 481 kts 142°
2026-04-15 10:55 62.04738 147.58322 37045 ft 482 kts 142°
2026-04-15 10:56 61.99376 147.66891 37023 ft 482 kts 142°
2026-04-15 10:56 61.94006 147.75435 37033 ft 482 kts 142°
2026-04-15 10:57 61.88639 147.83936 37026 ft 482 kts 142°
2026-04-15 10:57 61.80589 147.96614 37043 ft 482 kts 142°
2026-04-15 10:58 61.75201 148.05052 37022 ft 482 kts 142°
2026-04-15 10:58 61.69812 148.13458 37024 ft 482 kts 142°
2026-04-15 10:59 61.64415 148.21838 37032 ft 482 kts 142°
2026-04-15 10:59 61.59019 148.30179 37023 ft 482 kts 142°
2026-04-15 11:00 61.53616 148.38500 37046 ft 482 kts 142°
2026-04-15 11:00 61.48196 148.46788 37026 ft 482 kts 142°
2026-04-15 11:01 61.42760 148.55027 37026 ft 482 kts 143°
2026-04-15 11:01 61.37330 148.63221 37039 ft 482 kts 143°
2026-04-15 11:02 61.31893 148.71400 37029 ft 482 kts 143°
2026-04-15 11:02 61.26484 148.79503 37032 ft 482 kts 143°
2026-04-15 11:03 61.23753 148.83583 36612 ft 489 kts 143°
2026-04-15 11:03 61.20966 148.87741 35867 ft 493 kts 143°
2026-04-15 11:03 61.18226 148.91817 35054 ft 492 kts 142°
2026-04-15 11:03 61.15444 148.95942 34242 ft 492 kts 142°
2026-04-15 11:04 61.12659 149.00061 33266 ft 491 kts 142°
2026-04-15 11:04 61.09886 149.04154 32286 ft 490 kts 142°
2026-04-15 11:04 61.07119 149.08229 31301 ft 484 kts 142°
2026-04-15 11:04 61.04414 149.12200 30482 ft 468 kts 141°
2026-04-15 11:05 61.01806 149.16017 29753 ft 452 kts 141°
2026-04-15 11:05 60.99286 149.19700 29039 ft 436 kts 141°
2026-04-15 11:05 60.96864 149.23238 28438 ft 422 kts 141°
2026-04-15 11:05 60.94472 149.26739 27858 ft 420 kts 141°
2026-04-15 11:06 60.92089 149.30228 27278 ft 422 kts 141°
2026-04-15 11:06 60.89674 149.33764 26681 ft 431 kts 141°
2026-04-15 11:06 60.87215 149.37355 26057 ft 433 kts 141°
2026-04-15 11:06 60.84766 149.40913 25468 ft 430 kts 141°
2026-04-15 11:07 60.82340 149.44420 24855 ft 425 kts 141°
2026-04-15 11:07 60.79930 149.47892 24254 ft 421 kts 141°
2026-04-15 11:07 60.77542 149.51328 23668 ft 417 kts 141°
2026-04-15 11:07 60.75179 149.54725 22986 ft 413 kts 141°
2026-04-15 11:08 60.72845 149.58077 22373 ft 408 kts 141°
2026-04-15 11:08 60.70528 149.61399 21807 ft 403 kts 141°
2026-04-15 11:08 60.68278 149.64621 21237 ft 398 kts 141°
2026-04-15 11:08 60.65992 149.67890 20663 ft 394 kts 141°
2026-04-15 11:09 60.63786 149.71040 20089 ft 391 kts 141°
2026-04-15 11:09 60.61538 149.74244 19533 ft 388 kts 141°
2026-04-15 11:09 60.59362 149.77339 19010 ft 385 kts 141°
2026-04-15 11:09 60.57170 149.80450 18456 ft 383 kts 141°
2026-04-15 11:10 60.54992 149.83536 17858 ft 381 kts 142°
2026-04-15 11:10 60.52831 149.86595 17266 ft 378 kts 142°
2026-04-15 11:10 60.50680 149.89635 16727 ft 375 kts 142°
2026-04-15 11:10 60.48545 149.92646 16188 ft 371 kts 142°
2026-04-15 11:11 60.46431 149.95621 15643 ft 369 kts 142°
2026-04-15 11:11 60.44329 149.98570 15102 ft 364 kts 142°
2026-04-15 11:11 60.42156 150.01050 14568 ft 360 kts 155°
2026-04-15 11:11 60.39752 150.02635 14048 ft 368 kts 161°
2026-04-15 11:12 60.37298 150.04025 13430 ft 365 kts 161°
2026-04-15 11:12 60.34902 150.05578 12839 ft 355 kts 157°
2026-04-15 11:12 60.32675 150.07346 12340 ft 339 kts 154°
2026-04-15 11:12 60.30570 150.09100 11800 ft 316 kts 154°
2026-04-15 11:13 60.28590 150.10684 11342 ft 296 kts 155°
2026-04-15 11:13 60.26714 150.12110 10904 ft 279 kts 156°
2026-04-15 11:13 60.24901 150.13454 10497 ft 276 kts 156°
2026-04-15 11:13 60.23111 150.14769 10068 ft 271 kts 156°
2026-04-15 11:14 60.21362 150.16050 9632 ft 265 kts 157°
2026-04-15 11:14 60.19646 150.17306 9242 ft 260 kts 157°
2026-04-15 11:14 60.17947 150.18551 8799 ft 259 kts 157°
2026-04-15 11:14 60.16249 150.19798 8334 ft 261 kts 157°
2026-04-15 11:15 60.14520 150.21066 8276 ft 271 kts 157°
2026-04-15 11:15 60.12664 150.22425 8239 ft 292 kts 158°
2026-04-15 11:15 60.10793 150.23785 7981 ft 279 kts 158°
2026-04-15 11:15 60.08992 150.25093 7455 ft 272 kts 158°
2026-04-15 11:16 60.07236 150.26372 6884 ft 266 kts 158°
2026-04-15 11:16 60.05515 150.27624 6376 ft 260 kts 157°
2026-04-15 11:16 60.03848 150.28831 5810 ft 256 kts 156°
2026-04-15 11:16 60.02169 150.30009 5215 ft 249 kts 161°
2026-04-15 11:17 60.00463 150.30435 4633 ft 245 kts 176°
2026-04-15 11:17 59.98780 150.30413 4064 ft 240 kts 178°
2026-04-15 11:17 59.97157 150.30406 3601 ft 230 kts 177°
2026-04-15 11:17 59.95601 150.30447 3410 ft 219 kts 176°
2026-04-15 11:18 59.94135 150.30546 3372 ft 203 kts 168°
2026-04-15 11:18 59.92944 150.31692 3394 ft 188 kts 126°
2026-04-15 11:18 59.92445 150.34005 3434 ft 184 kts 96°
2026-04-15 11:18 59.92265 150.36524 3413 ft 182 kts 98°
2026-04-15 11:19 59.92053 150.38979 3439 ft 179 kts 95°
2026-04-15 11:19 59.91920 150.41433 3406 ft 176 kts 92°
2026-04-15 11:19 59.91841 150.43780 3181 ft 163 kts 90°
2026-04-15 11:19 59.91783 150.45911 2970 ft 145 kts 90°
2026-04-15 11:20 59.91733 150.47858 2800 ft 141 kts 89°
2026-04-15 11:20 59.91683 150.49803 2600 ft 140 kts 89°
2026-04-15 11:20 59.91632 150.51744 2399 ft 140 kts 89°
2026-04-15 11:20 59.91582 150.53679 2171 ft 140 kts 90°
2026-04-15 11:21 59.91531 150.55621 1947 ft 141 kts 91°
2026-04-15 11:21 59.91497 150.56917 1813 ft 141 kts 91°
2026-04-15 11:21 59.91429 150.59477 1532 ft 138 kts 91°
2026-04-15 11:21 59.91378 150.61381 1345 ft 136 kts 91°
2026-04-15 11:22 59.91328 150.63252 1162 ft 135 kts 92°
2026-04-15 11:22 59.91277 150.65125 998 ft 135 kts 92°
2026-04-15 11:22 59.91229 150.67012 772 ft 136 kts 93°
2026-04-15 11:22 59.91173 150.68865 652 ft 132 kts 92°
2026-04-15 11:23 59.91145 150.70074 620 ft 130 kts 92°
2026-04-15 11:23 59.91106 150.71700 588 ft 100 kts 92°
2026-04-15 11:23 59.91080 150.72710 589 ft 46 kts 93°
2026-04-15 11:23 59.91108 150.72986 590 ft 6 kts 53°
2026-04-15 11:24 59.91176 150.73157 588 ft 15 kts 50°
2026-04-15 11:24 59.91234 150.73275 587 ft 1 kts 26°
2026-04-15 11:24 59.91240 150.73278 587 ft 2 kts 16°
2026-04-15 11:24 59.91253 150.73279 587 ft 2 kts 358°
2026-04-15 11:25 59.91268 150.73269 587 ft 3 kts 335°
2026-04-15 11:25 59.91285 150.73244 587 ft 3 kts 321°
2026-04-15 11:25 59.91306 150.73190 587 ft 5 kts 297°
2026-04-15 11:25 59.91315 150.73116 587 ft 6 kts 278°
2026-04-15 11:26 59.91318 150.73031 587 ft 6 kts 273°
2026-04-15 11:26 59.91320 150.72936 587 ft 7 kts 273°
2026-04-15 11:26 59.91318 150.72834 587 ft 8 kts 259°
2026-04-15 11:26 59.91307 150.72726 587 ft 8 kts 259°
2026-04-15 11:27 59.91301 150.72611 587 ft 9 kts 268°
2026-04-15 11:27 59.91302 150.72493 587 ft 9 kts 273°
2026-04-15 11:27 59.91304 150.72408 587 ft 5 kts 272°
2026-04-15 11:27 59.91306 150.72327 587 ft 5 kts 272°
2026-04-15 11:28 59.91307 150.72291 587 ft 3 kts 272°
2026-04-15 11:28 59.91308 150.72251 587 ft 3 kts 272°
2026-04-15 11:28 59.91309 150.72211 587 ft 3 kts 273°
2026-04-15 11:28 59.91310 150.72171 587 ft 3 kts 273°
2026-04-15 11:29 59.91322 150.72144 587 ft 3 kts 340°
2026-04-15 11:29 59.91344 150.72140 587 ft 3 kts 353°
2026-04-15 11:29 59.91364 150.72140 587 ft 3 kts
2026-04-15 11:29 59.91367 150.72140 587 ft 0 kts